This is the latest recevied weather packets stored in our database for station/object K1PM-WX. If no packets are shown the sender has not sent any weather packets the latest 10 day(s).
| Time | Temp. | Humidity | Pressure | Rain* | Wind** | Luminosity | Snow |
|---|---|---|---|---|---|---|---|
| 1778159936 | 9.44° C | 72% | 1036 hPa | 0 mm | - | - | - |
| 1778159637 | 8.89° C | 76% | 1036 hPa | 0 mm | - | - | - |
| 1778159337 | 8.33° C | 77% | 1035 hPa | 0 mm | - | - | - |
| 1778159037 | 7.78° C | 78% | 1036 hPa | 0 mm | - | - | - |
| 1778158736 | 8.33° C | 79% | 1036 hPa | 0 mm | - | - | - |
| 1778158436 | 8.89° C | 82% | 1036 hPa | 0 mm | - | - | - |
| 1778158137 | 7.78° C | 88% | 1036 hPa | 0 mm | - | - | - |
| 1778157837 | 6.11° C | 90% | 1036 hPa | 0 mm | - | - | - |
| 1778157537 | 5.56° C | 93% | 1036 hPa | 0 mm | - | - | - |
| 1778157236 | 5.56° C | 96% | 1036 hPa | 0 mm | - | - | - |
| 1778156937 | 5.56° C | 99% | 1036 hPa | 0 mm | - | - | - |
| 1778156636 | 5° C | 99% | 1036 hPa | 0 mm | - | - | - |
| 1778156336 | 5° C | 99% | 1036 hPa | 0 mm | - | - | - |
| 1778156036 | 5° C | 99% | 1036 hPa | 0 mm | - | - | - |
| 1778155737 | 5° C | 99% | 1036 hPa | 0 mm | - | - | - |
| 1778155438 | 5° C | 99% | 1036 hPa | 0 mm | - | - | - |
| 1778155136 | 5° C | 99% | 1036 hPa | 0 mm | - | - | - |
| 1778154837 | 5° C | 99% | 1036 hPa | 0 mm | - | - | - |
| 1778154536 | 5° C | 99% | 1036 hPa | 0 mm | - | - | - |
| 1778154236 | 5° C | 99% | 1036 hPa | 0 mm | - | - | - |
| 1778153937 | 5° C | 99% | 1036 hPa | 0 mm | - | - | - |
| 1778153637 | 5.56° C | 99% | 1036 hPa | 0 mm | - | - | - |
| 1778153336 | 5.56° C | 99% | 1036 hPa | 0 mm | - | - | - |
| 1778153037 | 5° C | 99% | 1036 hPa | 0 mm | - | - | - |
| 1778152736 | 5° C | 99% | 1036 hPa | 0 mm | - | - | - |
* Rain latest hour (hover to see other rain measurements)
** Current wind speed in m/s (hover to see current wind gust speed)